Weather History for Menomonie, WI

Change the Weather History Date:

Saturday, May 18, 2013

  Actual Average (KEAU) Record (KEAU)
Temperature  
Mean Temperature 66 °F 58 °F  
Max Temperature 79 °F 70 °F 91 °F (1972)
Min Temperature 52 °F 46 °F 29 °F (2002)
Degree Days  
Heating Degree Days 0 8  
Month to date heating degree days 178  
Since 1 July heating degree days 7819  
Cooling Degree Days 0 1  
Month to date cooling degree days 12  
Year to date cooling degree days 16  
Growing Degree Days 16 (Base 50)    
Moisture  
Dew Point 55 °F    
Average Humidity 77    
Maximum Humidity 91    
Minimum Humidity 50    
Precipitation  
Precipitation 0.08 in 0.11 in 1.79 in (1938)
Month to date precipitation 1.95  
Year to date precipitation 8.13  
Snow  
Snow 0.00 in 0.00 in T in (1915)
Month to date snowfall 0.2  
Since 1 July snowfall 47.0  
Snow Depth -    
Sea Level Pressure  
Sea Level Pressure 29.96 in    
Wind  
Wind Speed 7 mph (ESE)    
Max Wind Speed 14 mph    
Max Gust Speed 17 mph    
Visibility 10 miles    
Events Rain    
T = Trace of Precipitation, MM = Missing Value Source: NWS Daily Summary

Daily Weather History Graph

Daily Weather History Graph

Search for Another Location

Airport:

Trip Planner

Search our weather history database for the weather conditions in past years. The results will help you decide how hot, cold, wet, or windy it might be!

Date:

Astronomy

May. 18, 2013 Rise Set
Actual Time 5:35 AM CDT 8:33 PM CDT
Civil Twilight 5:00 AM CDT 9:07 PM CDT
Nautical Twilight 4:16 AM CDT 9:52 PM CDT
Astronomical Twilight 3:24 AM CDT 10:45 PM CDT
Moon 1:19 PM CDT (5/18) 1:46 AM CDT (5/18)
Length of Visible Light 16h 07m
Length of Day
14h 57m
First Quarter, 55% of the Moon is Illuminated
May 18
First Quarter
May 24
Full
May 31
Last Quarter
Jun 8
New
Jun 16
First Quarter

Hourly Weather History & Observations

Time (CDT) Temp. Dew Point Humidity Pressure Visibility Wind Dir Wind Speed Gust Speed Precip Events Conditions
12:15 AM 54.1 °F 50.5 °F 88% 30.03 in 10.0 mi East 8.1 mph - N/A   Overcast
12:35 AM 54.1 °F 50.4 °F 87% 30.02 in 10.0 mi East 9.2 mph - N/A   Overcast
12:55 AM 54.0 °F 50.2 °F 87% 30.03 in 10.0 mi East 6.9 mph - N/A   Overcast
1:15 AM 53.6 °F 50.4 °F 89% 30.02 in 10.0 mi East 9.2 mph - N/A   Overcast
1:35 AM 53.2 °F 50.5 °F 91% 30.02 in 10.0 mi East 9.2 mph - N/A   Scattered Clouds
1:55 AM 53.1 °F 50.4 °F 91% 30.02 in 10.0 mi East 9.2 mph - N/A   Clear
2:15 AM 52.9 °F 50.0 °F 90% 30.02 in 10.0 mi East 8.1 mph - N/A   Clear
2:35 AM 53.1 °F 50.0 °F 89% 30.01 in 10.0 mi East 9.2 mph - N/A   Clear
2:55 AM 52.9 °F 50.0 °F 90% 30.01 in 10.0 mi East 6.9 mph - N/A   Clear
3:15 AM 52.9 °F 50.0 °F 90% 30.00 in 10.0 mi East 6.9 mph - N/A   Clear
3:35 AM 52.9 °F 49.8 °F 89% 30.00 in 10.0 mi East 6.9 mph - N/A   Clear
3:55 AM 52.9 °F 49.5 °F 88% 30.00 in 10.0 mi East 4.6 mph - N/A   Clear
4:15 AM 52.3 °F 49.5 °F 90% 29.99 in 10.0 mi East 5.8 mph - N/A   Clear
4:35 AM 52.2 °F 49.3 °F 90% 29.99 in 10.0 mi East 5.8 mph - N/A   Clear
4:55 AM 52.2 °F 49.3 °F 90% 29.99 in 10.0 mi ESE 8.1 mph - N/A   Clear
5:15 AM 52.2 °F 49.1 °F 89% 29.99 in 10.0 mi East 6.9 mph - N/A   Clear
5:35 AM 52.2 °F 49.1 °F 89% 30.00 in 10.0 mi East 5.8 mph - N/A   Clear
5:55 AM 52.2 °F 49.1 °F 89% 30.01 in 10.0 mi East 5.8 mph - N/A   Clear
6:15 AM 52.2 °F 49.1 °F 89% 30.01 in 10.0 mi East 5.8 mph - N/A   Clear
6:35 AM 52.2 °F 49.3 °F 90% 30.01 in 10.0 mi ESE 5.8 mph - N/A   Clear
6:55 AM 52.7 °F 49.5 °F 89% 30.01 in 10.0 mi East 5.8 mph - N/A   Clear
7:15 AM 52.9 °F 49.5 °F 88% 30.02 in 10.0 mi East 4.6 mph - N/A   Scattered Clouds
7:55 AM 53.6 °F 49.6 °F 86% 30.02 in 10.0 mi East 4.6 mph - N/A   Scattered Clouds
8:15 AM 54.3 °F 50.0 °F 85% 30.02 in 10.0 mi East 6.9 mph - N/A   Clear
8:35 AM 54.7 °F 50.2 °F 85% 30.03 in 10.0 mi East 4.6 mph - N/A   Mostly Cloudy
8:55 AM 55.0 °F 50.0 °F 83% 30.03 in 10.0 mi ESE 4.6 mph - N/A   Mostly Cloudy
9:15 AM 55.4 °F 50.2 °F 83% 30.03 in 10.0 mi ESE 3.5 mph - N/A   Overcast
9:35 AM 55.8 °F 50.5 °F 83% 30.04 in 10.0 mi ESE 4.6 mph - N/A   Overcast
9:55 AM 56.3 °F 51.1 °F 83% 30.03 in 10.0 mi SE 4.6 mph - N/A   Overcast
10:15 AM 56.3 °F 51.3 °F 83% 30.02 in 10.0 mi SE 3.5 mph - N/A   Overcast
10:35 AM 56.8 °F 51.3 °F 82% 30.03 in 10.0 mi SE 4.6 mph - N/A   Overcast
10:55 AM 57.0 °F 51.4 °F 82% 30.03 in 10.0 mi SE 4.6 mph - N/A   Overcast
11:15 AM 57.4 °F 51.8 °F 82% 30.03 in 10.0 mi SE 4.6 mph - N/A   Mostly Cloudy
11:35 AM 58.1 °F 52.2 °F 81% 30.03 in 10.0 mi SE 3.5 mph - N/A   Mostly Cloudy
11:55 AM 58.5 °F 52.5 °F 81% 30.03 in 10.0 mi Calm Calm - N/A   Light Drizzle
12:15 PM 58.1 °F 53.6 °F 85% 30.02 in 7.0 mi Calm Calm - 0.02 in Rain Rain
12:35 PM 58.1 °F 54.0 °F 86% 29.98 in 5.0 mi ESE 12.7 mph - 0.04 in Rain Rain
12:55 PM 58.1 °F 55.4 °F 91% 29.93 in 5.0 mi ESE 13.8 mph - 0.08 in Rain Light Rain
1:15 PM 60.8 °F 57.0 °F 87% 29.95 in 7.0 mi SE 8.1 mph - N/A   Scattered Clouds
1:35 PM 63.0 °F 57.9 °F 84% 29.95 in 10.0 mi SSE 8.1 mph - N/A   Clear
2:15 PM 68.7 °F 59.7 °F 73% 29.92 in 10.0 mi SE 8.1 mph - N/A   Clear
2:35 PM 71.8 °F 60.4 °F 67% 29.91 in 10.0 mi SE 9.2 mph - N/A   Clear
2:55 PM 74.7 °F 60.8 °F 62% 29.91 in 10.0 mi ESE 10.4 mph - N/A   Clear
3:15 PM 76.8 °F 61.0 °F 58% 29.90 in 10.0 mi SSE 10.4 mph 16.1 mph N/A   Clear
3:35 PM 78.1 °F 59.7 °F 53% 29.90 in 10.0 mi SSE 10.4 mph - N/A   Clear
3:55 PM 78.8 °F 60.4 °F 53% 29.89 in 10.0 mi South 11.5 mph 17.3 mph N/A   Clear
4:15 PM 78.8 °F 59.7 °F 52% 29.89 in 10.0 mi SSE 13.8 mph 17.3 mph N/A   Scattered Clouds
4:35 PM 78.8 °F 59.2 °F 51% 29.89 in 10.0 mi SSE 10.4 mph - N/A   Scattered Clouds
5:15 PM 79.0 °F 59.0 °F 50% 29.88 in 10.0 mi SSE 9.2 mph - N/A   Scattered Clouds
5:35 PM 79.3 °F 59.2 °F 50% 29.88 in 10.0 mi SE 8.1 mph - N/A   Clear
5:55 PM 78.8 °F 59.7 °F 52% 29.88 in 10.0 mi SE 9.2 mph - N/A   Clear
6:15 PM 79.3 °F 59.4 °F 50% 29.87 in 10.0 mi SSE 8.1 mph - N/A   Scattered Clouds
6:35 PM 78.1 °F 60.3 °F 54% 29.88 in 10.0 mi SSE 8.1 mph - N/A   Scattered Clouds
6:55 PM 77.5 °F 60.1 °F 55% 29.88 in 10.0 mi SE 5.8 mph - N/A   Mostly Cloudy
7:15 PM 76.3 °F 61.0 °F 59% 29.89 in 10.0 mi SE 6.9 mph - N/A   Overcast
7:35 PM 75.9 °F 61.0 °F 60% 29.89 in 10.0 mi SSE 4.6 mph - N/A   Mostly Cloudy
7:55 PM 74.8 °F 61.2 °F 62% 29.89 in 10.0 mi SE 4.6 mph - N/A   Mostly Cloudy
8:15 PM 73.4 °F 61.5 °F 66% 29.89 in 10.0 mi SE 5.8 mph - N/A   Scattered Clouds
8:35 PM 71.8 °F 61.7 °F 70% 29.88 in 10.0 mi ESE 4.6 mph - N/A   Scattered Clouds
8:55 PM 71.1 °F 61.3 °F 71% 29.88 in 10.0 mi ESE 4.6 mph - N/A   Mostly Cloudy
9:15 PM 70.0 °F 61.0 °F 73% 29.87 in 10.0 mi ESE 5.8 mph - N/A   Scattered Clouds
9:35 PM 69.3 °F 60.8 °F 74% 29.87 in 10.0 mi ESE 5.8 mph - N/A   Clear
9:55 PM 68.4 °F 60.3 °F 75% 29.86 in 10.0 mi ESE 6.9 mph - N/A   Clear
10:15 PM 67.5 °F 60.1 °F 77% 29.86 in 10.0 mi ESE 5.8 mph - N/A   Clear
10:35 PM 68.0 °F 60.1 °F 76% 29.86 in 10.0 mi ESE 5.8 mph - N/A   Clear
11:15 PM 66.6 °F 59.7 °F 79% 29.85 in 10.0 mi East 4.6 mph - N/A   Clear
11:35 PM 65.7 °F 59.2 °F 80% 29.85 in 10.0 mi Calm Calm - N/A   Clear
11:55 PM 64.8 °F 59.5 °F 83% 29.85 in 10.0 mi ESE 3.5 mph - N/A   Clear